This is the latest recevied weather packets stored in our database for station/object ac2ev. If no packets are shown the sender has not sent any weather packets the latest 10 day(s).
| Time | Temp. | Humidity | Pressure | Rain* | Wind** | Luminosity | Snow |
|---|---|---|---|---|---|---|---|
| 1788381571 | 29.44° C | 72% | 1012.1 hPa | 0 mm | - | - | - |
| 1788381270 | 29.44° C | 70% | 1012.6 hPa | 0 mm | - | - | - |
| 1788380971 | 30° C | 71% | 1012.6 hPa | 0 mm | - | - | - |
| 1788380670 | 29.44° C | 70% | 1012.7 hPa | 0 mm | - | - | - |
| 1788380371 | 29.44° C | 71% | 1012.7 hPa | 0 mm | - | - | - |
| 1788380070 | 29.44° C | 70% | 1012.8 hPa | 0 mm | - | - | - |
| 1788379771 | 29.44° C | 70% | 1012.8 hPa | 0 mm | - | - | - |
| 1788379471 | 29.44° C | 71% | 1013 hPa | 0 mm | - | - | - |
| 1788379171 | 29.44° C | 70% | 1013.1 hPa | 0 mm | - | - | - |
| 1788378871 | 28.89° C | 71% | 1013 hPa | 0 mm | - | - | - |
| 1788378571 | 28.89° C | 73% | 1013.2 hPa | 0 mm | - | - | - |
| 1788378271 | 28.33° C | 72% | 1013.2 hPa | 0 mm | - | - | - |
| 1788378074 | 28.33° C | 72% | 1013.1 hPa | 0 mm | - | - | - |
| 1788377671 | 28.33° C | 73% | 1013.1 hPa | 0 mm | - | - | - |
| 1788377370 | 28.33° C | 74% | 1012.9 hPa | 0 mm | - | - | - |
| 1788377071 | 28.33° C | 74% | 1013 hPa | 0 mm | - | - | - |
| 1788376771 | 28.33° C | 74% | 1013 hPa | 0 mm | - | - | - |
| 1788376472 | 28.33° C | 75% | 1013 hPa | 0 mm | - | - | - |
| 1788376170 | 28.33° C | 76% | 1012.9 hPa | 0 mm | - | - | - |
| 1788375872 | 28.33° C | 77% | 1012.9 hPa | 0 mm | - | - | - |
| 1788375570 | 28.33° C | 77% | 1012.9 hPa | 0 mm | - | - | - |
| 1788375272 | 28.33° C | 77% | 1012.9 hPa | 0 mm | - | - | - |
| 1788374970 | 28.33° C | 75% | 1012.9 hPa | 0 mm | - | - | - |
| 1788374672 | 28.89° C | 76% | 1012.8 hPa | 0 mm | - | - | - |
| 1788374371 | 28.89° C | 75% | 1012.5 hPa | 0 mm | - | - | - |
* Rain latest hour (hover to see other rain measurements)
** Current wind speed in m/s (hover to see current wind gust speed)